TimeMDT,TemperatureF,Dew PointF,Humidity,Sea Level PressureIn,VisibilityMPH,Wind Direction,Wind SpeedMPH,Gust SpeedMPH,PrecipitationIn,Events,Conditions,WindDirDegrees,DateUTC
12:02 AM,37.4,37.4,100,30.16,1.0,Calm,Calm,-,N/A,,Overcast,0,2011-10-05 06:02:00
12:09 AM,37.4,37.4,100,30.16,2.0,Calm,Calm,-,N/A,,Overcast,0,2011-10-05 06:09:00
12:17 AM,37.4,37.4,100,30.16,7.0,NW,3.5,-,N/A,,Overcast,310,2011-10-05 06:17:00
12:29 AM,37.4,37.4,100,30.15,10.0,NE,3.5,-,N/A,,Overcast,40,2011-10-05 06:29:00
12:53 AM,39.0,37.9,96,29.73,10.0,Calm,Calm,-,N/A,,Overcast,0,2011-10-05 06:53:00
1:51 AM,39.2,37.4,93,30.13,10.0,Calm,Calm,-,N/A,,Mostly Cloudy,0,2011-10-05 07:51:00
1:53 AM,39.0,37.9,96,29.72,10.0,North,3.5,-,N/A,,Mostly Cloudy,350,2011-10-05 07:53:00
2:53 AM,39.0,37.9,96,29.73,10.0,Calm,Calm,-,N/A,,Overcast,0,2011-10-05 08:53:00
3:08 AM,39.2,37.4,93,30.12,10.0,Calm,Calm,-,N/A,,Overcast,0,2011-10-05 09:08:00
3:19 AM,39.2,37.4,93,30.11,10.0,Calm,Calm,-,N/A,,Overcast,0,2011-10-05 09:19:00
3:31 AM,39.2,37.4,93,30.11,10.0,Calm,Calm,-,N/A,,Overcast,0,2011-10-05 09:31:00
3:53 AM,39.0,37.9,96,29.77,10.0,Calm,Calm,-,0.00,Rain,Light Rain,0,2011-10-05 09:53:00
4:07 AM,39.2,37.4,93,30.10,10.0,Calm,Calm,-,0.00,Rain,Light Rain,0,2011-10-05 10:07:00
4:21 AM,37.4,37.4,100,30.09,10.0,Calm,Calm,-,0.00,,Overcast,0,2011-10-05 10:21:00
4:38 AM,37.4,37.4,100,30.08,10.0,Calm,Calm,-,0.00,,Overcast,0,2011-10-05 10:38:00
4:53 AM,37.9,37.0,97,29.77,10.0,NNW,3.5,-,0.00,,Overcast,340,2011-10-05 10:53:00
5:10 AM,37.4,37.4,100,30.09,10.0,Calm,Calm,-,N/A,,Mostly Cloudy,0,2011-10-05 11:10:00
5:25 AM,35.6,35.6,100,30.09,10.0,ENE,3.5,-,N/A,,Overcast,70,2011-10-05 11:25:00
5:53 AM,36.0,35.1,97,29.76,10.0,ESE,3.5,-,N/A,,Mostly Cloudy,110,2011-10-05 11:53:00
6:53 AM,36.0,35.1,97,29.77,10.0,NNE,3.5,-,N/A,,Overcast,30,2011-10-05 12:53:00
7:35 AM,35.6,35.6,100,30.07,10.0,SE,3.5,-,N/A,,Mostly Cloudy,130,2011-10-05 13:35:00
7:53 AM,37.0,35.1,93,29.75,10.0,SSE,3.5,-,N/A,,Mostly Cloudy,160,2011-10-05 13:53:00
8:53 AM,37.0,37.0,100,29.76,10.0,Calm,Calm,-,N/A,,Overcast,0,2011-10-05 14:53:00
9:06 AM,37.4,37.4,100,30.07,10.0,SSW,6.9,-,N/A,,Overcast,210,2011-10-05 15:06:00
9:53 AM,39.0,36.0,89,29.76,10.0,SSW,4.6,-,N/A,,Mostly Cloudy,200,2011-10-05 15:53:00
9:58 AM,39.2,35.6,87,30.06,10.0,South,4.6,-,N/A,,Mostly Cloudy,180,2011-10-05 15:58:00
10:53 AM,41.0,36.0,82,29.72,10.0,SSW,6.9,-,N/A,,Mostly Cloudy,210,2011-10-05 16:53:00
11:53 AM,46.0,33.1,61,29.67,10.0,WSW,10.4,17.3,N/A,,Mostly Cloudy,240,2011-10-05 17:53:00
12:53 PM,46.9,30.0,52,29.64,10.0,SSW,16.1,23.0,N/A,,Overcast,200,2011-10-05 18:53:00
1:53 PM,48.0,32.0,54,29.62,10.0,SSW,13.8,25.3,N/A,,Mostly Cloudy,210,2011-10-05 19:53:00
2:53 PM,46.9,30.0,52,29.61,10.0,SW,10.4,-,N/A,,Mostly Cloudy,230,2011-10-05 20:53:00
3:53 PM,48.0,30.9,52,29.59,10.0,SSW,11.5,-,N/A,,Overcast,210,2011-10-05 21:53:00
4:53 PM,46.9,30.0,52,29.58,10.0,South,8.1,18.4,N/A,,Overcast,180,2011-10-05 22:53:00
5:53 PM,46.0,30.0,54,29.59,10.0,South,10.4,-,N/A,,Scattered Clouds,190,2011-10-05 23:53:00
6:53 PM,45.0,28.9,53,29.60,10.0,South,8.1,16.1,N/A,,Overcast,170,2011-10-06 00:53:00
7:53 PM,44.1,28.9,55,29.61,10.0,SSW,8.1,-,N/A,,Mostly Cloudy,210,2011-10-06 01:53:00
8:53 PM,42.1,30.9,65,29.63,10.0,Calm,Calm,-,N/A,,Overcast,0,2011-10-06 02:53:00
9:53 PM,42.1,28.9,60,29.59,10.0,SSE,5.8,-,N/A,,Overcast,150,2011-10-06 03:53:00
10:53 PM,41.0,28.9,62,29.57,10.0,South,3.5,-,N/A,,Overcast,170,2011-10-06 04:53:00
11:53 PM,39.9,30.0,68,29.53,10.0,South,13.8,21.9,N/A,,Scattered Clouds,190,2011-10-06 05:53:00